EST,Max TemperatureF,Mean TemperatureF,Min TemperatureF,Max Dew PointF,MeanDew PointF,Min DewpointF,Max Humidity, Mean Humidity, Min Humidity, Max Sea Level PressureIn, Mean Sea Level PressureIn, Min Sea Level PressureIn, Max VisibilityMiles, Mean VisibilityMiles, Min VisibilityMiles, Max Wind SpeedMPH, Mean Wind SpeedMPH, Max Gust SpeedMPH,PrecipitationIn, CloudCover, Events, WindDirDegrees
2013-11-1,81,72,62,74,70,61,100,86,72,30.00,29.88,29.81,10,9,2,18,7,25,0.88,5,Rain-Thunderstorm,189
2013-11-2,77,65,55,72,59,48,100,78,38,30.02,29.91,29.82,10,10,3,13,6,17,0.22,2,Rain-Thunderstorm,330
2013-11-3,71,58,46,52,43,36,93,60,28,30.23,30.13,30.01,10,10,10,14,5,20,0.00,0,,26
2013-11-4,73,62,50,57,50,41,77,65,49,30.30,30.25,30.21,10,10,10,13,6,21,0.00,1,,47
2013-11-5,75,65,55,61,55,48,88,71,55,30.30,30.24,30.18,10,10,10,14,8,24,0.00,5,,46
2013-11-6,78,71,64,64,63,60,94,82,60,30.21,30.15,30.09,10,10,7,10,5,16,0.00,4,,50
2013-11-7,81,72,62,68,63,46,100,79,52,30.11,30.06,29.99,10,8,1,16,2,24,0.04,5,,332
2013-11-8,69,58,46,48,41,36,76,56,37,30.23,30.18,30.11,10,10,10,17,9,26,0.00,1,,29
2013-11-9,78,63,48,61,50,39,88,66,46,30.26,30.21,30.16,10,10,7,10,4,16,0.01,1,,46
2013-11-10,78,66,55,61,56,51,94,76,45,30.26,30.20,30.13,10,10,2,10,2,,0.04,2,,27
2013-11-11,80,64,48,55,50,45,100,71,30,30.23,30.17,30.11,10,8,0,7,1,,0.03,0,Fog,54
2013-11-12,75,65,55,61,53,39,100,71,36,30.23,30.14,30.07,10,9,0,20,2,25,0.04,0,Fog,336
2013-11-13,55,46,37,39,29,21,70,53,28,30.46,30.38,30.24,10,10,10,18,11,26,0.00,0,,33
2013-11-14,69,53,37,52,40,21,88,63,47,30.42,30.33,30.24,10,10,10,10,6,17,0.01,0,,50
2013-11-15,64,60,55,61,57,51,100,92,83,30.25,30.17,30.06,10,9,4,10,3,,0.23,4,Rain,74
2013-11-16,77,68,60,65,62,58,100,85,64,30.19,30.13,30.07,10,6,1,12,3,20,0.07,7,,89
2013-11-17,80,73,66,70,67,64,94,86,67,30.12,30.06,30.01,10,9,3,13,5,20,0.33,7,Rain,147
2013-11-18,73,71,69,72,70,67,100,94,87,30.03,29.97,29.92,10,6,0,8,3,,0.56,8,Fog-Rain-Thunderstorm,241
2013-11-19,71,60,50,68,48,39,100,63,43,30.08,30.01,29.96,10,10,7,13,7,22,0.00,1,,32
2013-11-20,69,61,53,59,52,42,94,76,57,30.21,30.12,30.05,10,9,5,12,6,16,0.04,6,Rain,47
2013-11-21,75,65,55,64,59,54,94,83,64,30.26,30.22,30.18,10,10,7,10,6,,0.02,6,,52
2013-11-22,81,72,62,66,64,61,100,84,58,30.28,30.21,30.14,10,8,1,8,4,,0.03,5,,64
2013-11-23,80,70,59,66,62,55,100,82,61,30.16,30.12,30.05,10,8,0,12,3,21,0.02,4,Fog,324
2013-11-24,62,53,44,54,36,30,82,53,36,30.37,30.26,30.13,10,10,10,16,9,24,0.00,2,,32
2013-11-25,64,53,42,54,43,29,83,69,53,30.36,30.25,30.09,10,10,10,13,8,21,0.00,6,,51
2013-11-26,75,67,59,70,63,54,100,90,79,30.09,29.84,29.68,10,7,2,21,7,36,2.20,8,Rain-Thunderstorm,155
2013-11-27,64,50,35,63,42,30,100,83,57,30.28,29.98,29.70,10,10,2,22,12,31,0.00,5,Rain,301
2013-11-28,54,41,28,36,30,24,100,72,38,30.46,30.38,30.27,10,10,10,10,4,,0.03,0,,20
2013-11-29,66,50,35,45,37,31,87,66,40,30.49,30.43,30.35,10,10,10,10,5,,0.02,0,,29
2013-11-30,66,55,44,54,46,37,94,76,60,30.41,30.34,30.27,10,10,10,9,4,,0.01,4,,34